Погода в Пахтакоре

Узбекистан     40°18′38″N   67°57′21″E
темп.,
°C
ветер,
м/с
пор.,
м/с
влажн.,
%
обл.,
%
осадки,
мм/ч
давл.,
гПа
погр.,
м
27 ноября, сб
сб2723:00+4с22525 0.0 103350
02:00+2сз11575 0.0 103310
05:00+1зсз00605 0.0 103110
08:00+1ссз116128 0.0 103010
11:00+9в610605 0.0 1028869
14:00+12в610465 0.0 10251195
17:00+9св47515 0.0 1025114
20:00+5всв11635 0.0 102610
28 ноября, вс
вс2823:00+4св00635 0.0 102510
02:00+4ююв016399 0.0 102510
05:00+3юв2265100 0.0 102410
08:00+3юв1270100 0.0 102513
11:00+10в4639100 0.0 1024525
14:00+13в4432100 0.0 1022588
17:00+10в34369 0.0 102350
20:00+7в3430100 0.0 102449
29 ноября, пн
пн2923:00+7вюв223687 0.0 102316
02:00+7в224249 0.0 102322
05:00+6в123663 0.0 102314
08:00+6в11395 0.0 102315
11:00+13в22300 0.0 1023280
14:00+17всв32200 0.0 1021609
17:00+12в58230 0.0 1022129
20:00+9в342923 0.0 102448
30 ноября, вт
вт3023:00+8вюв2334100 0.0 102434
02:00+8вюв223593 0.0 102328
05:00+8в233699 0.0 102331
08:00+8в2236100 0.0 102326
11:00+13всв122565 0.0 1023239
14:00+17в3320100 0.0 1020503
17:00+13в472597 0.0 1021167
20:00+10в233179 0.0 102033
1 декабря, ср
ср123:00+9в113479 0.0 102013
02:00+9вюв22345 0.0 101916
05:00+9юв22335 0.0 101813
08:00+10юв33280 0.0 101717
11:00+17вюв33170 0.0 1016262
14:00+22в34120 0.0 1014533
17:00+15в46220 0.0 101466
20:00+13в34270 0.0 101549